AMU950 VMMC-VVNB

Flight info

Callsign AMU950
Flight time 1h 38m
Altitude 36000
Route ALLEY V10 SIKOU/K0872S1100 R339 WUY R474 TEBAK/K0872F360 R474 NAKH
Aircraft A321/M-SDE3FGHIRWY/LB1

Departure

Time 2026-05-06 07:02
Airport Macau International Airport (VMMC)

Arrival

Time 2026-05-06 08:40
Airport Noi Bai International Airport (VVNB)
Time Latitude Longitude Altitude Speed Heading
2026-05-06 06:28 22.15615 113.57415 29 ft 0 kts 332°
2026-05-06 06:49 22.15606 113.57420 29 ft 3 kts 334°
2026-05-06 06:49 22.15587 113.57429 29 ft 3 kts 341°
2026-05-06 06:49 22.15568 113.57435 29 ft 3 kts 352°
2026-05-06 06:49 22.15548 113.57436 29 ft 3 kts 14°
2026-05-06 06:50 22.15534 113.57429 29 ft 2 kts 56°
2026-05-06 06:50 22.15531 113.57426 29 ft 0 kts 62°
2026-05-06 06:54 22.15538 113.57439 29 ft 5 kts 62°
2026-05-06 06:54 22.15555 113.57475 29 ft 6 kts 62°
2026-05-06 06:54 22.15582 113.57520 29 ft 8 kts 51°
2026-05-06 06:55 22.15617 113.57571 29 ft 9 kts 73°
2026-05-06 06:55 22.15594 113.57635 29 ft 10 kts 123°
2026-05-06 06:55 22.15553 113.57703 29 ft 11 kts 123°
2026-05-06 06:55 22.15506 113.57779 29 ft 13 kts 123°
2026-05-06 06:56 22.15458 113.57859 29 ft 12 kts 123°
2026-05-06 06:56 22.15409 113.57935 29 ft 13 kts 124°
2026-05-06 06:56 22.15358 113.58018 29 ft 14 kts 123°
2026-05-06 06:56 22.15300 113.58112 29 ft 15 kts 123°
2026-05-06 06:57 22.15238 113.58210 29 ft 17 kts 124°
2026-05-06 06:57 22.15171 113.58318 29 ft 19 kts 123°
2026-05-06 06:57 22.15087 113.58455 29 ft 24 kts 123°
2026-05-06 06:57 22.14993 113.58607 29 ft 24 kts 124°
2026-05-06 06:58 22.14899 113.58760 29 ft 25 kts 123°
2026-05-06 06:58 22.14804 113.58914 29 ft 25 kts 123°
2026-05-06 06:58 22.14723 113.59036 29 ft 12 kts 137°
2026-05-06 06:58 22.14638 113.59069 28 ft 14 kts 162°
2026-05-06 06:59 22.14542 113.59105 28 ft 15 kts 161°
2026-05-06 06:59 22.14439 113.59142 28 ft 16 kts 161°
2026-05-06 06:59 22.14328 113.59183 28 ft 18 kts 161°
2026-05-06 06:59 22.14209 113.59228 28 ft 18 kts 161°
2026-05-06 07:00 22.14130 113.59276 29 ft 9 kts 102°
2026-05-06 07:00 22.14150 113.59347 29 ft 10 kts 70°
2026-05-06 07:00 22.14177 113.59422 29 ft 11 kts 56°
2026-05-06 07:00 22.14215 113.59414 29 ft 6 kts 326°
2026-05-06 07:01 22.14259 113.59395 29 ft 8 kts 341°
2026-05-06 07:01 22.14341 113.59365 28 ft 23 kts 341°
2026-05-06 07:01 22.14748 113.59216 27 ft 99 kts 342°
2026-05-06 07:01 22.15596 113.58903 28 ft 159 kts 340°
2026-05-06 07:02 22.16734 113.58487 431 ft 172 kts 342°
2026-05-06 07:02 22.17903 113.58265 1064 ft 174 kts
2026-05-06 07:02 22.18990 113.58756 1762 ft 167 kts 37°
2026-05-06 07:02 22.19994 113.59408 2292 ft 171 kts 32°
2026-05-06 07:03 22.21020 113.60029 2752 ft 176 kts 33°
2026-05-06 07:03 22.22100 113.60683 3245 ft 181 kts 32°
2026-05-06 07:03 22.23268 113.61390 3523 ft 205 kts 30°
2026-05-06 07:03 22.24573 113.62167 3871 ft 222 kts 29°
2026-05-06 07:04 22.25952 113.62995 4312 ft 230 kts 29°
2026-05-06 07:04 22.27337 113.63830 4816 ft 232 kts 28°
2026-05-06 07:04 22.28705 113.64779 5267 ft 237 kts 38°
2026-05-06 07:04 22.30052 113.65939 5420 ft 260 kts 38°
2026-05-06 07:05 22.31536 113.67216 5727 ft 282 kts 38°
2026-05-06 07:05 22.33062 113.68593 6356 ft 290 kts 46°
2026-05-06 07:05 22.34232 113.70376 7024 ft 295 kts 65°
2026-05-06 07:05 22.34830 113.72498 7749 ft 298 kts 79°
2026-05-06 07:06 22.35247 113.74706 8462 ft 302 kts 79°
2026-05-06 07:06 22.35673 113.76944 9213 ft 306 kts 79°
2026-05-06 07:06 22.36104 113.79181 9909 ft 310 kts 79°
2026-05-06 07:06 22.36554 113.81505 10250 ft 326 kts 78°
2026-05-06 07:07 22.37033 113.83983 10379 ft 348 kts 79°
2026-05-06 07:07 22.37227 113.86659 10496 ft 368 kts 94°
2026-05-06 07:07 22.36748 113.89424 10615 ft 384 kts 110°
2026-05-06 07:07 22.35547 113.92059 10735 ft 398 kts 126°
2026-05-06 07:08 22.33940 113.94566 10879 ft 413 kts 127°
2026-05-06 07:08 22.32285 113.97134 11278 ft 420 kts 127°
2026-05-06 07:08 22.30609 113.99738 11768 ft 425 kts 126°
2026-05-06 07:08 22.28915 114.02376 12271 ft 429 kts 126°
2026-05-06 07:09 22.27232 114.05005 12792 ft 433 kts 126°
2026-05-06 07:09 22.25513 114.07693 13282 ft 438 kts 126°
2026-05-06 07:09 22.23774 114.10411 13792 ft 442 kts 126°
2026-05-06 07:09 22.22024 114.13148 14246 ft 445 kts 126°
2026-05-06 07:10 22.20260 114.15900 14718 ft 447 kts 126°
2026-05-06 07:10 22.18485 114.18662 15177 ft 449 kts 126°
2026-05-06 07:10 22.16699 114.21437 15618 ft 451 kts 126°
2026-05-06 07:10 22.14907 114.24224 16075 ft 453 kts 126°
2026-05-06 07:11 22.13086 114.27007 16518 ft 454 kts 129°
2026-05-06 07:11 22.10883 114.29356 16910 ft 453 kts 145°
2026-05-06 07:11 22.08145 114.30998 17298 ft 451 kts 161°
2026-05-06 07:11 22.05109 114.31774 17663 ft 449 kts 176°
2026-05-06 07:12 22.02007 114.31638 18032 ft 447 kts 192°
2026-05-06 07:12 21.99058 114.30620 18363 ft 446 kts 207°
2026-05-06 07:12 21.96355 114.28973 18669 ft 447 kts 212°
2026-05-06 07:12 21.93667 114.27264 18984 ft 449 kts 212°
2026-05-06 07:13 21.90973 114.25548 19298 ft 451 kts 212°
2026-05-06 07:13 21.88266 114.23825 19611 ft 453 kts 212°
2026-05-06 07:13 21.85545 114.22099 19915 ft 455 kts 212°
2026-05-06 07:13 21.82846 114.20392 20219 ft 457 kts 212°
2026-05-06 07:14 21.80101 114.18659 20521 ft 458 kts 212°
2026-05-06 07:14 21.77344 114.16917 20821 ft 460 kts 212°
2026-05-06 07:14 21.74582 114.15171 21107 ft 462 kts 212°
2026-05-06 07:14 21.71803 114.13417 21398 ft 464 kts 212°
2026-05-06 07:15 21.69016 114.11658 21676 ft 465 kts 212°
2026-05-06 07:15 21.66202 114.09922 21940 ft 468 kts 209°
2026-05-06 07:15 21.63192 114.08561 22210 ft 473 kts 200°
2026-05-06 07:15 21.59997 114.07660 22484 ft 476 kts 195°
2026-05-06 07:16 21.56808 114.06848 22772 ft 478 kts 196°
2026-05-06 07:16 21.53570 114.06014 23044 ft 480 kts 196°
2026-05-06 07:16 21.50317 114.05168 23325 ft 482 kts 196°
2026-05-06 07:16 21.47058 114.04310 23580 ft 483 kts 198°
2026-05-06 07:17 21.43904 114.03107 23871 ft 479 kts 207°
2026-05-06 07:17 21.40981 114.01421 24197 ft 475 kts 215°
2026-05-06 07:17 21.38227 113.99469 24523 ft 474 kts 216°
2026-05-06 07:17 21.35479 113.97522 24879 ft 473 kts 216°
2026-05-06 07:18 21.32769 113.95608 25223 ft 472 kts 216°
2026-05-06 07:18 21.30025 113.93677 25568 ft 472 kts 216°
2026-05-06 07:18 21.27284 113.91749 25927 ft 471 kts 216°
2026-05-06 07:18 21.24551 113.89827 26290 ft 470 kts 216°
2026-05-06 07:19 21.21818 113.87900 26656 ft 469 kts 216°
2026-05-06 07:19 21.19096 113.85980 27022 ft 468 kts 216°
2026-05-06 07:19 21.16378 113.84059 27407 ft 468 kts 216°
2026-05-06 07:19 21.13669 113.82136 27785 ft 466 kts 217°
2026-05-06 07:20 21.11180 113.79935 28153 ft 463 kts 227°
2026-05-06 07:20 21.09111 113.77376 28514 ft 459 kts 236°
2026-05-06 07:20 21.07458 113.74467 28907 ft 457 kts 245°
2026-05-06 07:20 21.06278 113.71322 29277 ft 455 kts 252°
2026-05-06 07:21 21.05255 113.68115 29680 ft 455 kts 252°
2026-05-06 07:21 21.04224 113.64922 30070 ft 454 kts 252°
2026-05-06 07:21 21.03192 113.61736 30383 ft 453 kts 252°
2026-05-06 07:21 21.02156 113.58553 30732 ft 452 kts 252°
2026-05-06 07:22 21.01124 113.55383 31080 ft 451 kts 252°
2026-05-06 07:22 21.00096 113.52220 31437 ft 450 kts 252°
2026-05-06 07:22 20.99083 113.49104 31790 ft 448 kts 252°
2026-05-06 07:22 20.98061 113.45963 32149 ft 447 kts 252°
2026-05-06 07:23 20.97039 113.42828 32508 ft 446 kts 252°
2026-05-06 07:23 20.96018 113.39700 32847 ft 445 kts 252°
2026-05-06 07:23 20.94999 113.36580 33186 ft 444 kts 252°
2026-05-06 07:23 20.93984 113.33467 33526 ft 443 kts 252°
2026-05-06 07:24 20.92976 113.30364 33876 ft 442 kts 252°
2026-05-06 07:24 20.91969 113.27265 34171 ft 441 kts 252°
2026-05-06 07:24 20.90961 113.24169 34447 ft 440 kts 252°
2026-05-06 07:24 20.89968 113.21123 34707 ft 440 kts 252°
2026-05-06 07:25 20.88961 113.18038 34978 ft 440 kts 252°
2026-05-06 07:25 20.87949 113.14949 35245 ft 440 kts 252°
2026-05-06 07:25 20.86937 113.11866 35515 ft 440 kts 252°
2026-05-06 07:25 20.85921 113.08782 35758 ft 440 kts 252°
2026-05-06 07:26 20.84902 113.05692 35881 ft 441 kts 252°
2026-05-06 07:26 20.82848 112.99440 35912 ft 449 kts 252°
2026-05-06 07:27 20.80797 112.93184 35917 ft 449 kts 252°
2026-05-06 07:27 20.78731 112.86880 35918 ft 449 kts 252°
2026-05-06 07:28 20.76654 112.80581 35918 ft 450 kts 252°
2026-05-06 07:28 20.73517 112.71132 35914 ft 450 kts 252°
2026-05-06 07:29 20.71441 112.64859 35922 ft 451 kts 252°
2026-05-06 07:29 20.69350 112.58535 35929 ft 452 kts 252°
2026-05-06 07:30 20.67256 112.52207 35935 ft 452 kts 252°
2026-05-06 07:30 20.65150 112.45878 35934 ft 452 kts 252°
2026-05-06 07:31 20.63046 112.39554 35930 ft 452 kts 252°
2026-05-06 07:31 20.60954 112.33263 35932 ft 453 kts 252°
2026-05-06 07:32 20.58841 112.26925 35936 ft 453 kts 252°
2026-05-06 07:32 20.56815 112.20563 35927 ft 452 kts 259°
2026-05-06 07:33 20.56505 112.13951 35928 ft 447 kts 279°
2026-05-06 07:33 20.58370 112.07719 35927 ft 445 kts 296°
2026-05-06 07:34 20.61067 112.01762 35930 ft 446 kts 295°
2026-05-06 07:34 20.63759 111.95789 35931 ft 447 kts 295°
2026-05-06 07:35 20.66450 111.89809 35930 ft 447 kts 295°
2026-05-06 07:35 20.69134 111.83871 35931 ft 447 kts 295°
2026-05-06 07:36 20.71832 111.77893 35929 ft 447 kts 295°
2026-05-06 07:36 20.74521 111.71911 35929 ft 447 kts 295°
2026-05-06 07:37 20.77207 111.65926 35929 ft 446 kts 295°
2026-05-06 07:37 20.79864 111.59980 35928 ft 446 kts 295°
2026-05-06 07:38 20.82542 111.53994 35932 ft 447 kts 295°
2026-05-06 07:38 20.84880 111.47861 35925 ft 446 kts 285°
2026-05-06 07:39 20.86472 111.41441 35925 ft 447 kts 285°
2026-05-06 07:39 20.88063 111.35062 35926 ft 447 kts 285°
2026-05-06 07:40 20.89662 111.28639 35928 ft 447 kts 285°
2026-05-06 07:40 20.91257 111.22211 35922 ft 447 kts 285°
2026-05-06 07:41 20.92853 111.15779 35920 ft 447 kts 285°
2026-05-06 07:41 20.94431 111.09392 35921 ft 447 kts 285°
2026-05-06 07:42 20.96025 111.02964 35921 ft 447 kts 285°
2026-05-06 07:42 20.97651 110.96544 35916 ft 447 kts 285°
2026-05-06 07:43 20.99280 110.90123 35919 ft 447 kts 285°
2026-05-06 07:43 21.00892 110.83747 35916 ft 447 kts 285°
2026-05-06 07:44 21.02507 110.77323 35915 ft 447 kts 285°
2026-05-06 07:44 21.04122 110.70903 35913 ft 447 kts 285°
2026-05-06 07:45 21.05734 110.64482 35912 ft 447 kts 285°
2026-05-06 07:45 21.07330 110.58104 35913 ft 446 kts 285°
2026-05-06 07:46 21.08933 110.51682 35913 ft 446 kts 285°
2026-05-06 07:46 21.10532 110.45263 35909 ft 446 kts 285°
2026-05-06 07:47 21.12126 110.38833 35908 ft 446 kts 285°
2026-05-06 07:47 21.13949 110.32536 35903 ft 446 kts 294°
2026-05-06 07:48 21.16867 110.26670 35907 ft 447 kts 298°
2026-05-06 07:48 21.19824 110.20816 35906 ft 447 kts 297°
2026-05-06 07:49 21.22776 110.14960 35907 ft 447 kts 298°
2026-05-06 07:49 21.25713 110.09135 35907 ft 447 kts 297°
2026-05-06 07:50 21.28652 110.03272 35903 ft 447 kts 297°
2026-05-06 07:50 21.31594 109.97403 35902 ft 447 kts 297°
2026-05-06 07:51 21.34529 109.91535 35901 ft 447 kts 297°
2026-05-06 07:51 21.37473 109.85661 35901 ft 447 kts 297°
2026-05-06 07:52 21.40391 109.79830 35899 ft 447 kts 297°
2026-05-06 07:52 21.43328 109.73953 35899 ft 447 kts 297°
2026-05-06 07:53 21.46269 109.68074 35901 ft 447 kts 297°
2026-05-06 07:53 21.49204 109.62194 35901 ft 447 kts 297°
2026-05-06 07:54 21.52110 109.56355 35896 ft 447 kts 297°
2026-05-06 07:54 21.55041 109.50460 35894 ft 447 kts 297°
2026-05-06 07:55 21.57972 109.44575 35894 ft 447 kts 299°
2026-05-06 07:55 21.61732 109.39252 35903 ft 449 kts 308°
2026-05-06 07:56 21.65726 109.34165 35903 ft 448 kts 308°
2026-05-06 07:56 21.69734 109.29027 35902 ft 448 kts 308°
2026-05-06 07:57 21.73733 109.23889 35903 ft 448 kts 308°
2026-05-06 07:57 21.77736 109.18748 35903 ft 448 kts 308°
2026-05-06 07:58 21.81743 109.13622 35903 ft 448 kts 308°
2026-05-06 07:58 21.85717 109.08520 35906 ft 448 kts 308°
2026-05-06 07:59 21.89722 109.03384 35907 ft 448 kts 308°
2026-05-06 07:59 21.93737 108.98261 35907 ft 447 kts 308°
2026-05-06 08:00 21.97747 108.93140 35908 ft 447 kts 308°
2026-05-06 08:00 22.01728 108.88058 35916 ft 447 kts 308°
2026-05-06 08:01 22.05722 108.82927 35910 ft 447 kts 308°
2026-05-06 08:01 22.09717 108.77798 35907 ft 446 kts 308°
2026-05-06 08:02 22.13706 108.72672 35906 ft 446 kts 308°
2026-05-06 08:02 22.17678 108.67599 35911 ft 445 kts 308°
2026-05-06 08:03 22.21679 108.62496 35907 ft 445 kts 308°
2026-05-06 08:03 22.25673 108.57385 35905 ft 445 kts 308°
2026-05-06 08:04 22.29658 108.52275 35904 ft 445 kts 308°
2026-05-06 08:04 22.33609 108.47192 35903 ft 445 kts 308°
2026-05-06 08:05 22.37591 108.42075 35918 ft 445 kts 308°
2026-05-06 08:05 22.41565 108.36967 35910 ft 444 kts 308°
2026-05-06 08:06 22.45506 108.31891 35908 ft 443 kts 308°
2026-05-06 08:06 22.49468 108.26798 35905 ft 443 kts 308°
2026-05-06 08:07 22.53432 108.21696 35893 ft 443 kts 308°
2026-05-06 08:07 22.56578 108.16061 35890 ft 438 kts 288°
2026-05-06 08:08 22.57496 108.09637 35887 ft 438 kts 268°
2026-05-06 08:08 22.56509 108.03126 35886 ft 439 kts 261°
2026-05-06 08:09 22.55362 107.96632 35885 ft 440 kts 261°
2026-05-06 08:09 22.54216 107.90124 35885 ft 440 kts 261°
2026-05-06 08:10 22.53059 107.83624 35883 ft 440 kts 261°
2026-05-06 08:10 22.51910 107.77159 35883 ft 441 kts 261°
2026-05-06 08:11 22.50748 107.70651 35875 ft 440 kts 261°
2026-05-06 08:11 22.49590 107.64148 35880 ft 440 kts 261°
2026-05-06 08:12 22.48428 107.57653 35874 ft 440 kts 261°
2026-05-06 08:12 22.47271 107.51204 35874 ft 440 kts 261°
2026-05-06 08:13 22.46107 107.44713 35867 ft 440 kts 261°
2026-05-06 08:13 22.44936 107.38222 35859 ft 440 kts 261°
2026-05-06 08:14 22.43758 107.31730 35858 ft 440 kts 261°
2026-05-06 08:14 22.42778 107.26326 35860 ft 440 kts 261°
2026-05-06 08:15 22.41410 107.18779 35861 ft 441 kts 261°
2026-05-06 08:15 22.40248 107.12279 35691 ft 440 kts 261°
2026-05-06 08:16 22.39668 107.09036 35452 ft 439 kts 261°
2026-05-06 08:16 22.39284 107.06889 35292 ft 439 kts 261°
2026-05-06 08:16 22.38704 107.03647 35061 ft 440 kts 261°
2026-05-06 08:16 22.38121 107.00405 34825 ft 440 kts 261°
2026-05-06 08:17 22.37347 106.96131 34525 ft 433 kts 261°
2026-05-06 08:17 22.36771 106.92976 34294 ft 424 kts 259°
2026-05-06 08:17 22.35951 106.89943 34072 ft 417 kts 251°
2026-05-06 08:17 22.35196 106.88048 33919 ft 414 kts 246°
2026-05-06 08:18 22.33755 106.85384 33676 ft 410 kts 238°
2026-05-06 08:18 22.31327 106.82210 33331 ft 411 kts 228°
2026-05-06 08:18 22.29297 106.80049 33081 ft 409 kts 228°
2026-05-06 08:18 22.27273 106.77899 32831 ft 407 kts 228°
2026-05-06 08:19 22.25282 106.75785 32583 ft 406 kts 228°
2026-05-06 08:19 22.23276 106.73654 32337 ft 404 kts 228°
2026-05-06 08:19 22.21273 106.71524 32087 ft 404 kts 227°
2026-05-06 08:19 22.19949 106.70115 31922 ft 404 kts 227°
2026-05-06 08:20 22.17253 106.67303 31602 ft 403 kts 223°
2026-05-06 08:20 22.15820 106.66031 31456 ft 403 kts 222°
2026-05-06 08:20 22.12911 106.63496 31024 ft 402 kts 221°
2026-05-06 08:20 22.10715 106.61581 30305 ft 408 kts 221°
2026-05-06 08:21 22.08536 106.59682 29952 ft 399 kts 221°
2026-05-06 08:21 22.07115 106.58442 29528 ft 396 kts 221°
2026-05-06 08:21 22.04984 106.56582 28890 ft 392 kts 221°
2026-05-06 08:21 22.02874 106.54746 28162 ft 387 kts 221°
2026-05-06 08:22 22.00818 106.52961 27406 ft 383 kts 221°
2026-05-06 08:22 21.98757 106.51167 26670 ft 379 kts 221°
2026-05-06 08:22 21.96719 106.49390 25942 ft 375 kts 221°
2026-05-06 08:22 21.94731 106.47596 25227 ft 370 kts 223°
2026-05-06 08:23 21.92807 106.45777 24514 ft 366 kts 224°
2026-05-06 08:23 21.90318 106.43363 23592 ft 361 kts 225°
2026-05-06 08:23 21.88465 106.41557 22816 ft 357 kts 224°
2026-05-06 08:23 21.87223 106.40351 22288 ft 354 kts 224°
2026-05-06 08:24 21.85428 106.38615 21483 ft 350 kts 224°
2026-05-06 08:24 21.83624 106.36881 20671 ft 345 kts 224°
2026-05-06 08:24 21.81844 106.35181 19832 ft 340 kts 224°
2026-05-06 08:24 21.80082 106.33506 19022 ft 335 kts 224°
2026-05-06 08:25 21.78346 106.31857 18227 ft 331 kts 224°
2026-05-06 08:25 21.76629 106.30223 17363 ft 327 kts 224°
2026-05-06 08:25 21.74393 106.28095 16239 ft 321 kts 224°
2026-05-06 08:25 21.72784 106.26461 15446 ft 315 kts 230°
2026-05-06 08:26 21.71810 106.25272 14908 ft 312 kts 231°
2026-05-06 08:26 21.70405 106.23545 14455 ft 310 kts 231°
2026-05-06 08:26 21.68998 106.21823 14193 ft 304 kts 231°
2026-05-06 08:26 21.67604 106.20123 13971 ft 303 kts 231°
2026-05-06 08:27 21.66219 106.18430 13835 ft 300 kts 231°
2026-05-06 08:27 21.64837 106.16743 13830 ft 301 kts 231°
2026-05-06 08:27 21.63449 106.15048 13835 ft 303 kts 231°
2026-05-06 08:27 21.62052 106.13338 13838 ft 304 kts 231°
2026-05-06 08:28 21.60660 106.11636 13837 ft 303 kts 231°
2026-05-06 08:28 21.59272 106.09938 13832 ft 303 kts 232°
2026-05-06 08:28 21.57907 106.08189 13343 ft 308 kts 233°
2026-05-06 08:28 21.56588 106.06411 13047 ft 302 kts 234°
2026-05-06 08:29 21.55315 106.04661 12666 ft 300 kts 234°
2026-05-06 08:29 21.54038 106.02898 12232 ft 298 kts 234°
2026-05-06 08:29 21.52769 106.01156 11728 ft 295 kts 234°
2026-05-06 08:29 21.51506 105.99429 11253 ft 292 kts 234°
2026-05-06 08:30 21.50258 105.97732 10625 ft 287 kts 234°
2026-05-06 08:30 21.49020 105.96059 9949 ft 284 kts 233°
2026-05-06 08:30 21.47804 105.94420 9404 ft 278 kts 233°
2026-05-06 08:30 21.46591 105.92784 8945 ft 280 kts 233°
2026-05-06 08:31 21.45389 105.91160 8627 ft 278 kts 233°
2026-05-06 08:31 21.44185 105.89534 8183 ft 279 kts 233°
2026-05-06 08:31 21.42998 105.87931 7839 ft 276 kts 233°
2026-05-06 08:31 21.41811 105.86328 7355 ft 273 kts 233°
2026-05-06 08:32 21.40653 105.84764 7220 ft 262 kts 233°
2026-05-06 08:32 21.39541 105.83266 7098 ft 251 kts 233°
2026-05-06 08:32 21.38621 105.81729 6983 ft 241 kts 248°
2026-05-06 08:32 21.38223 105.80017 6753 ft 236 kts 264°
2026-05-06 08:33 21.38076 105.78257 6416 ft 237 kts 264°
2026-05-06 08:33 21.37924 105.76510 6107 ft 235 kts 262°
2026-05-06 08:33 21.37769 105.74775 5745 ft 237 kts 263°
2026-05-06 08:33 21.37609 105.73022 5419 ft 237 kts 262°
2026-05-06 08:34 21.37448 105.71263 5117 ft 235 kts 262°
2026-05-06 08:34 21.37133 105.67785 4629 ft 228 kts 262°
2026-05-06 08:34 21.36793 105.66163 4536 ft 220 kts 239°
2026-05-06 08:35 21.35814 105.64950 4378 ft 217 kts 211°
2026-05-06 08:35 21.34432 105.64388 4108 ft 213 kts 192°
2026-05-06 08:35 21.32999 105.64032 3852 ft 217 kts 192°
2026-05-06 08:35 21.31518 105.63660 3602 ft 218 kts 192°
2026-05-06 08:36 21.30039 105.63285 3341 ft 219 kts 192°
2026-05-06 08:36 21.28573 105.62940 3092 ft 213 kts 185°
2026-05-06 08:36 21.27208 105.63310 2818 ft 203 kts 141°
2026-05-06 08:36 21.26480 105.64561 2608 ft 198 kts 110°
2026-05-06 08:37 21.26076 105.65935 2380 ft 187 kts 109°
2026-05-06 08:37 21.25737 105.67227 2159 ft 171 kts 109°
2026-05-06 08:37 21.25413 105.68401 1942 ft 158 kts 109°
2026-05-06 08:37 21.25109 105.69470 1750 ft 145 kts 110°
2026-05-06 08:38 21.24816 105.70491 1568 ft 142 kts 111°
2026-05-06 08:38 21.24526 105.71500 1398 ft 142 kts 112°
2026-05-06 08:38 21.24241 105.72490 1229 ft 138 kts 109°
2026-05-06 08:38 21.23960 105.73467 1048 ft 137 kts 110°
2026-05-06 08:39 21.23677 105.74445 848 ft 138 kts 109°
2026-05-06 08:39 21.23399 105.75430 737 ft 136 kts 108°
2026-05-06 08:39 21.23123 105.76404 530 ft 136 kts 108°
2026-05-06 08:39 21.22833 105.77374 328 ft 134 kts 107°
2026-05-06 08:40 21.22560 105.78320 186 ft 135 kts 108°
2026-05-06 08:40 21.22280 105.79265 48 ft 125 kts 104°
2026-05-06 08:40 21.22073 105.80005 47 ft 80 kts 107°
2026-05-06 08:40 21.21960 105.80396 49 ft 30 kts 107°
2026-05-06 08:41 21.21917 105.80544 51 ft 20 kts 107°
2026-05-06 08:41 21.21878 105.80668 48 ft 13 kts 114°
2026-05-06 08:41 21.21824 105.80724 49 ft 10 kts 167°
2026-05-06 08:41 21.21747 105.80710 49 ft 12 kts 195°
2026-05-06 08:42 21.21685 105.80691 49 ft 7 kts 196°
2026-05-06 08:42 21.21647 105.80678 49 ft 7 kts 202°
2026-05-06 08:42 21.21626 105.80633 49 ft 8 kts 271°
2026-05-06 08:42 21.21644 105.80569 49 ft 10 kts 291°
2026-05-06 08:43 21.21666 105.80490 49 ft 12 kts 285°
2026-05-06 08:43 21.21692 105.80397 49 ft 14 kts 286°
2026-05-06 08:43 21.21722 105.80293 46 ft 15 kts 287°
2026-05-06 08:43 21.21755 105.80177 49 ft 17 kts 287°
2026-05-06 08:44 21.21793 105.80048 46 ft 19 kts 287°
2026-05-06 08:44 21.21831 105.79916 49 ft 18 kts 287°
2026-05-06 08:44 21.21866 105.79796 49 ft 16 kts 288°
2026-05-06 08:44 21.21864 105.79742 46 ft 3 kts 207°
2026-05-06 08:45 21.21844 105.79738 49 ft 3 kts 190°
2026-05-06 08:45 21.21825 105.79733 47 ft 3 kts 194°
2026-05-06 08:45 21.21806 105.79727 49 ft 2 kts 197°
2026-05-06 08:45 21.21794 105.79723 49 ft 2 kts 197°
2026-05-06 08:46 21.21786 105.79721 49 ft 1 kts 197°
2026-05-06 08:46 21.21785 105.79720 49 ft 0 kts 197°